Orbital Elements at Epoch 2459000.5 (2020-May-31.0) TDB
Reference: JPL 14 (heliocentric ecliptic J2000)
Element | Value | Uncertainty (1-sigma) | Units |
e | .18630498571912 | 6.1348e-08 | |
a | 2.272748531100502 | 9.5869e-09 | au |
q | 1.849324148470672 | 1.4081e-07 | au |
i | 6.492943150443359 | 6.9442e-06 | deg |
node | 41.96266777669128 | 3.3823e-05 | deg |
peri | 320.7529392832947 | 3.718e-05 | deg |
M | 76.13504152514462 | 1.2075e-05 | deg |
tp | 2458735.828247109936 (2019-Sep-09.32824711) | 4.2439e-05 | TDB |
period | 1251.484587539826 3.43 | 7.9185e-06 2.168e-08 | d yr |
n | .2876583567902259 | 1.8201e-09 | deg/d |
Q | 2.696172913730332 | 1.1373e-08 | au |
|
| | Orbit Determination Parameters
Additional Information
|